Location: LDNL
(36.4545°S, 141.6685°E)
Time: 03:02:04
(UTC+10:00)

Courier 1B Rocket - Pass Details

Date: 12 August 2022
Orbit: 920 x 1202 km, 28.2° (Epoch: 20 September)

Event Time Altitude Azimuth Distance (km) Brightness Sun altitude
Exits shadow 05:04:55 31° 335° (NNW) 1,945 6.3 -27.6°
Maximum altitude 05:07:24 39° 12° (NNE) 1,700 6.3 -27.1°
Drops below altitude 10° 05:14:17 10° 77° (ENE) 3,030 8.5 -25.7°
Sets 05:17:12 0° 84° (E) 3,952 9.6 -25.1°
